Sheboygan, WI

12:19 PM CDT on August 19, 2017 (GMT -0500)
Sheboygan County Memorial

Weather History for KSBM - April, 2013

Change the Weather History Date:

Thursday, April 11, 2013

  Actual Average Record
Temperature  
Mean Temperature 34 °F -  
Max Temperature 36 °F 49 °F 85 °F (1977)
Min Temperature 33 °F 34 °F 20 °F (1973)
Degree Days  
Heating Degree Days 30    
Moisture  
Dew Point 34 °F    
Average Humidity 97    
Maximum Humidity 100    
Minimum Humidity 89    
Precipitation  
Precipitation 0.28 in - - ()
Sea Level Pressure  
Sea Level Pressure 29.78 in    
Wind  
Wind Speed 20 mph (ENE)    
Max Wind Speed 31 mph    
Max Gust Speed 43 mph    
Visibility 3 miles    
Events Rain    
Averages and records for this station are not official NWS values.
T = Trace of Precipitation, MM = Missing Value Source: NWS Daily Summary

Daily Weather History Graph

Daily Weather History Graph

Search for Another Location

Airport or City:

Trip Planner

Search our weather history database for the weather conditions in past years. The results will help you decide how hot, cold, wet, or windy it might be!

Date:

Astronomy

Apr. 11, 2013 Rise Set
Actual Time 6:14 AM CDT 7:30 PM CDT
Civil Twilight 5:45 AM CDT 8:00 PM CDT
Nautical Twilight 5:09 AM CDT 8:36 PM CDT
Astronomical Twilight 4:32 AM CDT 9:13 PM CDT
Moon 6:43 AM CDT (4/11) 9:08 PM CDT (4/11)
Length of Visible Light 14h 15m
Length of Day
13h 15m
New Moon, 2% of the Moon is Illuminated
Apr 11
New Moon
Apr 18
First Quarter
Apr 25
Full
May 2
Last Quarter
May 9
New

Hourly Weather History & Observations

Time (CDT) Temp. Windchill Dew Point Humidity Pressure Visibility Wind Dir Wind Speed Gust Speed Precip Events Conditions
12:53 AM 36.0 °F 25.6 °F 33.1 °F 89% 30.00 in 10.0 mi ENE 18.4 mph - 0.01 in Rain Light Rain
1:53 AM 35.1 °F 25.9 °F 33.1 °F 92% 30.01 in 6.0 mi ENE 13.8 mph - 0.06 in Rain Light Rain
2:53 AM 35.1 °F 21.6 °F 33.1 °F 92% 29.78 in 8.0 mi ENE 31.1 mph 42.6 mph 0.04 in Rain Light Rain
3:13 AM 35.6 °F 24.2 °F 33.8 °F 93% 29.84 in 10.0 mi ENE 21.9 mph 32.2 mph 0.00 in   Mostly Cloudy
3:53 AM 36.0 °F 26.7 °F 33.1 °F 89% 29.91 in 10.0 mi East 15.0 mph 26.5 mph 0.00 in   Overcast
4:53 AM 35.1 °F 25.2 °F 32.0 °F 89% 29.91 in 10.0 mi ENE 16.1 mph 24.2 mph N/A   Overcast
5:53 AM 35.1 °F 24.5 °F 32.0 °F 89% 29.88 in 7.0 mi ENE 18.4 mph 28.8 mph 0.02 in Rain Light Rain
6:53 AM 35.1 °F 23.3 °F 32.0 °F 89% 29.88 in 10.0 mi ENE 23.0 mph 32.2 mph 0.00 in Rain Light Rain
7:25 AM 35.6 °F 24.8 °F 33.8 °F 93% 29.86 in 2.5 mi ENE 19.6 mph - 0.00 in Rain Light Rain
7:33 AM 35.6 °F 24.8 °F 33.8 °F 93% 29.86 in 3.0 mi ENE 19.6 mph 29.9 mph 0.00 in Rain Light Rain
7:41 AM 35.6 °F 24.2 °F 33.8 °F 93% 29.84 in 4.0 mi ENE 21.9 mph 28.8 mph 0.00 in Rain Light Rain
7:53 AM 34.0 °F 21.0 °F 33.1 °F 96% 29.87 in 2.0 mi ENE 26.5 mph 32.2 mph 0.00 in   Overcast
8:00 AM 33.8 °F 21.6 °F 33.8 °F 100% 29.86 in 1.8 mi ENE 23.0 mph 32.2 mph 0.00 in   Overcast
8:10 AM 33.8 °F 21.3 °F 33.8 °F 100% 29.84 in 2.0 mi ENE 24.2 mph 29.9 mph 0.00 in Rain Light Rain
8:30 AM 33.8 °F 21.6 °F 33.8 °F 100% 29.83 in 1.8 mi ENE 23.0 mph 29.9 mph 0.01 in Rain Light Rain
8:39 AM 33.8 °F 21.6 °F 33.8 °F 100% 29.84 in 2.5 mi ENE 23.0 mph 35.7 mph 0.01 in Rain Light Rain
8:53 AM 34.0 °F 21.8 °F 33.1 °F 96% 29.87 in 2.5 mi ENE 23.0 mph 29.9 mph 0.02 in Rain Light Rain
9:53 AM 34.0 °F 22.1 °F 34.0 °F 100% 29.84 in 2.0 mi ENE 21.9 mph - 0.02 in Rain Light Rain
10:12 AM 33.8 °F 21.6 °F 33.8 °F 100% 29.80 in 1.5 mi ENE 23.0 mph 32.2 mph 0.01 in Rain Light Rain
10:31 AM 35.6 °F 24.5 °F 33.8 °F 93% 29.81 in 2.5 mi East 20.7 mph 28.8 mph 0.02 in Rain Light Rain
10:39 AM 35.6 °F 24.0 °F 33.8 °F 93% 29.80 in 3.0 mi ENE 23.0 mph 31.1 mph 0.02 in Rain Light Rain
10:53 AM 35.1 °F 23.3 °F 34.0 °F 96% 29.83 in 2.5 mi ENE 23.0 mph 32.2 mph 0.03 in Rain Light Rain
11:38 AM 35.6 °F 24.8 °F 33.8 °F 93% 29.79 in 1.8 mi ENE 19.6 mph 28.8 mph 0.01 in Rain Light Rain
12:15 PM 35.6 °F 24.5 °F 35.6 °F 100% 29.79 in 2.0 mi East 20.7 mph 27.6 mph 0.02 in Rain Rain
12:29 PM 35.6 °F 24.5 °F 35.6 °F 100% 29.78 in 4.0 mi East 20.7 mph 27.6 mph 0.02 in Rain Light Rain
12:53 PM 36.0 °F 24.4 °F 35.1 °F 97% 29.79 in 3.0 mi ENE 23.0 mph 29.9 mph 0.02 in Rain Light Rain
1:01 PM 35.6 °F 24.5 °F 35.6 °F 100% 29.76 in 1.8 mi East 20.7 mph 31.1 mph 0.00 in Rain Light Rain
1:53 PM 36.0 °F 24.7 °F 35.1 °F 97% 29.78 in 1.5 mi ENE 21.9 mph - 0.01 in Rain Light Rain
2:20 PM 35.6 °F 24.2 °F 35.6 °F 100% 29.73 in 1.5 mi ENE 21.9 mph 28.8 mph 0.01 in   Overcast
2:53 PM 35.1 °F 24.1 °F 35.1 °F 100% 29.77 in 1.2 mi ENE 19.6 mph 29.9 mph 0.01 in   Overcast
3:53 PM 35.1 °F 23.5 °F 35.1 °F 100% 29.74 in 1.8 mi ENE 21.9 mph 28.8 mph 0.01 in   Overcast
4:02 PM 35.6 °F 24.8 °F 35.6 °F 100% 29.71 in 2.0 mi ENE 19.6 mph 28.8 mph N/A   Overcast
4:12 PM 35.6 °F 24.5 °F 35.6 °F 100% 29.71 in 1.5 mi ENE 20.7 mph 28.8 mph 0.00 in   Overcast
4:53 PM 35.1 °F 23.3 °F 35.1 °F 100% 29.73 in 1.2 mi ENE 23.0 mph 29.9 mph 0.00 in   Overcast
5:53 PM 35.1 °F 24.1 °F 35.1 °F 100% 29.72 in 1.5 mi ENE 19.6 mph - 0.01 in   Overcast
6:34 PM 35.6 °F 25.5 °F 33.8 °F 93% 29.73 in 2.0 mi ENE 17.3 mph - 0.00 in   Overcast
6:49 PM 35.6 °F 26.6 °F 33.8 °F 93% 29.73 in 1.5 mi ENE 13.8 mph 21.9 mph 0.00 in   Overcast
6:53 PM 35.1 °F 25.2 °F 34.0 °F 96% 29.75 in 1.5 mi ENE 16.1 mph 21.9 mph 0.00 in   Overcast
7:23 PM 35.6 °F 25.5 °F 33.8 °F 93% 29.69 in 2.0 mi ENE 17.3 mph - 0.01 in   Overcast
7:40 PM 33.8 °F 23.2 °F 33.8 °F 100% 29.68 in 3.0 mi ENE 17.3 mph - 0.01 in   Overcast
7:45 PM 33.8 °F 23.9 °F 33.8 °F 100% 29.68 in 2.5 mi ENE 15.0 mph 23.0 mph 0.01 in   Overcast
7:53 PM 34.0 °F 22.7 °F 34.0 °F 100% 29.69 in 2.5 mi ENE 19.6 mph 25.3 mph 0.01 in   Overcast
8:53 PM 34.0 °F 22.7 °F 34.0 °F 100% 29.67 in 2.0 mi ENE 19.6 mph 29.9 mph 0.00 in   Overcast
9:53 PM 34.0 °F 22.7 °F 33.1 °F 96% 29.68 in 1.8 mi East 19.6 mph 24.2 mph 0.00 in   Overcast
10:00 PM 33.8 °F 22.8 °F 33.8 °F 100% 29.65 in 1.8 mi ENE 18.4 mph - 0.00 in Rain Light Rain
10:07 PM 33.8 °F 23.2 °F 33.8 °F 100% 29.65 in 2.0 mi East 17.3 mph - 0.01 in Rain Light Rain
10:53 PM 34.0 °F 25.0 °F 33.1 °F 96% 29.67 in 2.5 mi East 12.7 mph - 0.01 in   Overcast
11:38 PM 33.8 °F 24.8 °F 33.8 °F 100% 29.64 in 2.5 mi East 12.7 mph - N/A   Overcast
11:51 PM 33.8 °F 27.0 °F 33.8 °F 100% 29.65 in 3.0 mi East 8.1 mph - N/A   Overcast
11:53 PM 34.0 °F 27.2 °F 34.0 °F 100% 29.67 in 2.5 mi East 8.1 mph - N/A   Overcast